Погода в Дару

Папуа-Новая Гвинея     8°10′53″S   141°52′24″E
темп.,
°C
ветер,
м/с
пор.,
м/с
влажн.,
%
обл.,
%
осадки,
мм/ч
давл.,
гПа
погр.,
м
27 января, ср
ср2701:00+24сз1296100 0.0 100481
04:00+24ссз1599100 1.8 1003183
07:00+24ссз21098100 0.7 1005510
10:00+27ссз3684100 0.7 1006703
13:00+33сз3755100 0.0 10031589
16:00+31сз3576100 1.9 1001824
19:00+26зсз2990100 4.5 1003252
22:00+24зсз2795100 4.8 1005233
28 января, чт
чт2801:00+24сз21295100 0.0 1005578
04:00+24сз21096100 0.0 1003582
07:00+24ссз2798100 0.2 1005391
10:00+28сз4974100 0.2 10061076
13:00+29зсз498093 1.8 10041286
16:00+30з397796 5.1 10021599
19:00+26сз1285100 0.8 100450
22:00+24сз2796100 1.3 1005262
29 января, пт
пт2901:00+23ссз2698100 0.0 1005227
04:00+24сз3109699 0.3 1004444
07:00+23ссз2998100 0.5 1006469
10:00+27сз488294 1.2 1006990
13:00+29сз597391 2.4 10051422
16:00+27сз498395 4.4 10031160
19:00+25сз2996100 2.6 1004597
22:00+24сз31196100 3.2 1006711
30 января, сб
сб3001:00+23сз41197100 1.3 1006845
04:00+23ссз31297100 3.4 1004663
07:00+23сз21097100 0.0 1005723
10:00+27сз3880100 0.1 1006970
13:00+30зсз4873100 1.3 10041358
16:00+29зсз368089 4.1 10021043
19:00+25зсз279542 3.6 1004243
22:00+24зсз2119671 5.0 1006539
31 января, вс
вс3101:00+24сз2119698 0.0 1005538
04:00+24зсз2129699 0.0 1004665
07:00+24сз299793 0.0 1005472
10:00+29сз377486 0.0 1006983
13:00+30зсз367580 2.1 10041173
16:00+30зсз377487 4.6 10021121
19:00+25зюз279288 3.4 1004207
22:00+25з289594 3.4 1006280